Marina Di Campo Airport

Jump to: basic info | weather | frequencies | runways | comments

Related pages: nearby airports | nearby navaids | notams | map

Basic information (top)

Codes: EBA LIRJ
Location: lon 42.760300, lat 10.239400, elev 31 ft / 9 m msl
Status: medium_airport

Weather (top)

Current conditions for Bastia-Poretta Airport 36nm (66km) WSW (rec'd 2015/02/27 12:30Z):

LFKB 271230Z 03010KT 9999 FEW036 14/07 Q1010 NOSIG

Airport forecast for Bastia-Poretta Airport 36nm (66km) WSW (rec'd 2015/02/27 12:15Z):

TAF LFKB 271100Z 2712/2812 06008KT 9999 FEW030 SCT065 
      BECMG 2716/2718 22004KT CAVOK TX15/2713Z TN06/2806Z

Frequencies (top)

Verify before use: may be inaccurate or out of date.

AFIS: 123.7 MHz (AFIS)

Runways (top)

16/34: 3,114 x 75 ft (949 x 23 m) — paved — not lighted — threshold 16 displaced 479 ft (146 m) — threshold 34 displaced 285 ft (87 m)

Latest comments (top)

No comments yet for Marina Di Campo Airport

More... (top)

See also NOTAMs and nearby airports and navaids, or visit the Marina Di Campo Airport page at the main OurAirports website..